Timeline UpdatesTrip UpdatesNews PostsPvt PostsTravel TipsAdmin PostsConv PostsFollowed PostsChat RequestsBlog PostsPNR Posts

Disclaimer
Search
 
 
Thu Apr 17, 2014 21:01:42 ISTHomeTrainsΣChainsAtlasPNRForumGalleryNewsFAQTripsMembersLoginFeedback
No Recent News for this Train
Other Trains in the News **new
Latest...
2 SL coaches will be replaced with 1HA coach and 1 2AC coach wef 20th March, 2014.
Fri Feb 21, 2014 (12:20AM)
⇐ Return Journey: Train# 17063

17064/Ajanta Express

Dec 16 2013 (6:44PM)
Change Departure Station:
Change Arrival Station:
Post a Train Travel TipPost a Train Travel Tip **new
Post a Comment/Question/Picture/VideoPost a Comment/Question/Picture/Video
Pantry/Catering
✕ NO Pantry Car
✓ Catering Avbl
RSA - Rake Sharing
NO RSA.
Rake/Coach Composition
LOCO-SLR-GS1-S1-S2-S3-S4-S5-S6-S7-S8-S9-S10-S11-S12-S13-S14-B1-B2-A1-A2-HA1-GS2-GS3-SLR;Ref Entry# 1043059 by Raghavender Daramoni.
Loco
MLY WDM-3A (Twins)
News    PNR    Forum    Time-Table    Availability    Fare Chart    Map    Arr/Dep History    Trips    Gallery    ΣChains    X/O    Timeline    
Travel Time: 12h 35m    20 halts    Distance: 621 km    Avg Speed: 49 km/hr
Type: Mail/Express
Zone: SCR/South Central
Departs @ 18:10 (Avg 1m late)
Platform# 8
SMTWTFS
Secunderabad Junction/SC 
Arrives @ 06:45 +1 night (Avg 8m late)
Platform# 5
SMTWTFS
Manmad Junction/MMR 

20 halts. 86 intermediate Stations between Secunderabad Junction and Manmad Junction

Hide intermediate Stations  Show Old Time-Table

#CodeStation NameX/OArrivesAvgDepartsAvgHaltPFDay#KmSpeedElevZoneAddress
1SC»Secunderabad Junction (10)»  -18:10+1810.026539mSCRSecunderabad 500003, Andhra Pradesh
1.1LGDHLalaguda Gate (2)  18:16-18:16-  12.4 26543mSCRSecunderabad, Andhra Pradesh
2MJFMalkajgiri (3)X  18:18+1518:19+151m213.555535mSCRSecunderabad, Andhra Pradesh
2.1DYEDayanand Nagar (2)  18:20-18:20-  14.3 55537mSCRSecunderabad, Andhra Pradesh
2.2SFXSafilguda (2)  18:21-18:21-  14.9 55544mSCRSecunderabad, Andhra Pradesh
2.3RKORamakistapuram Gate (2)  18:22-18:22-  16.6 55561mSCRSecunderabad, Andhra Pradesh
2.4AMQAmmuguda Halt (2)  18:24-18:24-  17.7 55569mSCRSecunderabad, Andhra Pradesh
2.5CVBCavalry Barracks (3)  18:25-18:25-  19.1 55575mSCRSecunderabad, Andhra Pradesh
2.6ALWAlwal (2)  18:26-18:26-  110.3 55580mSCRSecunderabad, Andhra Pradesh
2.7BOZBolarum Bazar (2)  18:28-18:28-  112.0 55584mSCRSecunderabad, Andhra Pradesh
3BMOBolarum (3)  18:30+2018:31+201m2113.664597mSCRSecunderabad, Andhra Pradesh
3.1GOPLGundlapochampalli  18:36-18:36-  118.9 64601mSCRTelangana Region, Andhra Pradesh
3.2GDPLGundla Pochampally (1)  18:36-18:36-  119.0 64601mSCRRangareddy, Andhra Pradesh
3.3GWVGowdavalli (1)  18:41-18:41-  124.1 64601mSCRRangareddy, Andhra Pradesh
4MEDMedchal (3)  18:44+2318:45+231m2127.566602mSCRRangareddy Dist., Andhra Pradesh
4.1DBVDabilpur (1)  18:49-18:49-  131.5 66611mSCRRangareddy Dist., Andhra Pradesh
4.2KUCHKuchavaram Halt (1)X  18:55-18:55-  138.1 66595mSCRRangareddy, Andhra Pradesh
4.3MOBManoharabad (2)  18:57-18:57-  140.8 66593mSCRMedak, Andhra Pradesh
4.4PAPMPalata Potaram (1)  19:09-19:09-  153.3 66522mSCRNational Highway 7, Andhra Pradesh
4.5BMPLBrahmanapalli (1)  19:10-19:10-  155.0 66528mSCRNational Highway 7, Andhra Pradesh
4.6MEMasaipet (2)  19:13-19:13-  157.8 66520mSCRMedak, Andhra Pradesh
4.7SHANSrinivasa NagarX  19:15-19:15-  161.0 66522mSCRRamanthapur, Andhra Pradesh
4.8WDRWadiaram (2)  19:20-19:20-  165.7 66547mSCRTelangana Region, Andhra Pradesh
4.9MZLMirzapalli (1)  19:26-19:26-  172.2 66530mSCRMedak, Andhra Pradesh
4.10SNPHShankapur HaltX  19:31-19:31-  177.9 66547mSCRNizamabad, Andhra Pradesh
4.11AKEAkanapet  19:36-19:36-  183.0 66566mSCR, Andhra Pradesh
4.12BKUBhiknur  19:41-19:41-  189.2 66575mSCRNizamabad, Andhra Pradesh
4.13THPRTippapur (1)  19:45-19:45-  193.2 66549mSCRNational Highway 7, Andhra Pradesh
4.14TMDTalmadlaXO  19:50-19:50-  198.7 66559mSCRTelangana Region, Andhra Pradesh
5KMCKamareddi (3)  19:59+3020:00+311m--1108.849528mSCRKamareddi, Andhra Pradesh
5.1UPWUppalavai  20:14-20:14-  1120.0 49529mSCRUppalwai Main Rd, Andhra Pradesh
5.2SCPSirnapalliX  20:27-20:27-  1130.4 49456mSCRSirnapalli, Andhra Pradesh
5.3IDLIndalvai (1)  20:36-20:36-  1138.3 49439mSCRIndalvai, Andhra Pradesh
5.4DHPDichpalli  20:48-20:48-  1147.8 49424mSCRDichpalli, Andhra Pradesh
6NZBNizamabad (3)  21:04+2021:05+251m11160.659384mSCRNizamabad, Andhra Pradesh
6.1JKMJankampet Junction (1)  21:11-21:11-  1166.9 59391mSCRJankampet Junction nizamabad dist., Andhra Pradesh
6.2NVTNavipet (2)X  21:21-21:21-  1176.3 59374mSCRNizamabad, Andhra Pradesh
6.3FKBFakrabad (1)  21:28-21:28-  1183.3 59348mSCRBasara, Andhra Pradesh
7BSXBasar (2)X  21:35+2521:37+252m--1190.059358mSCRDist Adilabad, Andhra Pradesh
8DABDharmabad (2)  21:47+2721:48+291m--1199.955354mSCRDegaon, Maharashtra
8.1SQESamrla  21:55-21:55-  1206.3 55360mSCRDharmabad, Maharashtra
8.2KEKKarkheli  22:03-22:03-  1213.4 55358mSCRBiloli, Maharashtra
8.3BLSABolsa  22:11-22:11-  1220.9 55361mSCRDharmabad, Maharashtra
9UMRIUmri22:20+2722:21+271m--1229.324381mSCRNanded, Maharashtra
9.1SLGHShelgaon HaltX  22:41-22:41-  1237.1 24378mSCRMudkhed, Maharashtra
9.2SVNSivungaon  22:52-22:52-  1241.6 24395mSCRNanded, Maharashtra
10MUEMudkhed Junction (4)  23:10+1923:12+202m--1248.858378mSCRMudkhed, Maharashtra
10.1MGCMugat  23:21-23:21-  1257.9 58360mSCRNanded, Maharashtra
10.2PARDPathrad  23:25-23:25-  1261.2 58363mSCRHuzur Sahib Nanded, Maharashtra
10.3MTDIMaltekdi  23:32-23:32-  1268.4 58362mSCRNanded, Maharashtra
11NEDHazur Sahib Nanded (4)X  23:35+2723:40+305m11271.161366mSCRNanded ph.no 09730471954, Maharashtra
11.1WNGWanegaon  23:46-23:46-  1277.6 61371mSCRChudawa, Maharashtra
11.2LBGLimbgaon  23:51-23:51-  1282.2 61390mSCRHuzur Sahib Nanded, Maharashtra
11.3CRUChudawa (1)  00:00-00:00-  2291.9 61392mSCRHingoli, Maharashtra
12PAUPurna Junction (4)  00:10+3600:12+452m--2301.766384mSCRPurna, Maharashtra
12.1MQLMirkhal  00:23-00:23-  2313.8 66405mSCRPurna, Maharashtra
12.2PIZPingli  00:28-00:28-  2319.2 66399mSCRParbhani, Maharashtra
13PBNParbhani Junction (3)X  00:38+5300:40+542m22330.253414mSCRParbhani 431401, Maharashtra
13.1PGPergaon  00:54-00:54-  2342.3 53441mSCRParbhani, Maharashtra
13.2DAVDevalgaon AvcharX  01:01-01:01-  2348.3 53425mSCRParbhani, Maharashtra
14MVOManwath Road (2)  01:11+5101:12+531m--2357.664421mSCRParbhani, Maharashtra
14.1DGPPDhengli Pimpalgaon  01:17-01:17-  2363.0 64407mSCRSatuna, Maharashtra
15SELUSelu (2)X  01:26+1:0101:27+1:021m--2372.666436mSCRParbhani, Maharashtra
15.1SCOSatuna  01:36-01:36-  2382.8 66440mSCRSatona, Maharashtra
15.2UPRUsmanpurX  01:43-01:43-  2390.7 66444mSCRUsmanpur, Maharashtra
16PTUPartur (2)X  01:52+1:0401:53+1:071m--2400.263465mSCRJalna, Maharashtra
16.1PDGParadgaon  02:00-02:00-  2407.4 63454mSCRUsmanpur, Maharashtra
16.2RNERanjani  02:06-02:06-  2413.6 63469mSCRJalna, Maharashtra
16.3KODIKodiX  02:16-02:16-  2424.9 63473mSCRRanjani, Maharashtra
16.4SVDSarwari  02:26-02:26-  2434.8 63493mSCRRanjani, Maharashtra
17JJalna (3)  02:35+1:0702:37+1:092m--2444.655502mSCRJalna, Maharashtra
17.1BDUBadnapur  02:58-02:58-  2463.5 55523mSCRJalna, Maharashtra
17.2KMVKarmad  03:14-03:14-  2479.0 55567mSCRAurangabad, Maharashtra
17.3CTHChikalthan  03:19-03:19-  2482.9 55582mSCRAurangabad, Maharashtra
17.4MKDDMukundwadi Halt (1)  03:34-03:34-  2497.2 55580mSCRAurangabad, Maharashtra
18AWBAurangabad (5)X  03:45+5603:50+1:005m12507.284561mSCRAurangabad 431001, Maharashtra
18.1DLBDaulatabad  03:59-03:59-  2519.7 84575mSCRDaulatabad, Maharashtra
18.2POZPotul (1)  04:06-04:06-  2529.0 84554mSCRLasur, Maharashtra
19LSRLasur (2)  04:14+1:0504:15+1:061m--2540.856536mSCRAurangabad, Maharashtra
19.1KAJGKaranjgaon  04:26-04:26-  2550.9 56523mSCRLasur, Maharashtra
19.2PSDParsodaX  04:31-04:31-  2555.6 56530mSCRRotegaon, Maharashtra
20RGORotegaon  04:44+1:0004:45+1:011m--2567.931547mSCRAurangabad, Maharashtra
20.1TRTarur  05:28-05:28-  2589.7 31586mSCRTaru, Maharashtra
21NSLNagarsol (2)X  05:40+3605:45+365m12595.925589mSCRDist. Nashik, Maharashtra
21.1ANKAnkai (3)  06:09-06:09-  2605.8 25620mSCRDist. Nashik, Maharashtra
21.2AAKAnkaikilaX  06:20-06:20-  2610.5 25645mCRNasik Dist, Maharashtra
21.3MMRBManmad B Cabin  06:35-06:35-  2616.4 25596mCRManmad, Maharashtra
22MMR•Manmad Junction (6)•  06:45+8-52620.7-580mCRManmad 423104, Maharashtra
Scroll to Top
Scroll to Bottom